Location: Newark
(46.7000°N, 60.6000°W)
Time: 04:50:05
(UTC+00:00)

Transit 2A Rocket - Pass Details

Date: 30 October 2020
Orbit: 588 x 914 km, 66.7° (Epoch: 27 November)

Event Time Altitude Azimuth Distance (km) Brightness Sun altitude
Rises 14:22:01 0° 238° (WSW) 3,540 8.5 26.4°
Reaches altitude 10° 14:24:45 10° 246° (WSW) 2,593 7.8 26.6°
Maximum altitude 14:30:22 39° 314° (NW) 1,317 6.1 26.9°
Drops below altitude 10° 14:35:48 10° 23° (NNE) 2,487 7.3 27.2°
Sets 14:38:22 0° 31° (NNE) 3,379 8.0 27.4°
